Location: Observatory
(52.1446°N, 0.4624°W)
Time: 18:41:54
(UTC+00:00)

ISS - Pass Details

Date: 03 December 2021
Orbit: 417 x 422 km, 51.6° (Epoch: 06 December)

Event Time Altitude Azimuth Distance (km) Brightness Sun altitude
Rises 19:20:00 0° 279° (W) 2,379 1.2 -30.8°
Reaches altitude 10° 19:22:45 10° 256° (WSW) 1,510 -0.1 -31.2°
Enters shadow 19:23:05 11° 251° (WSW) 1,432 -0.3 -31.2°
